THOR ABLESTAR DEB, 409

Orbit data source: Space-Track

THOR ABLESTAR DEB, 409 is space debris in LEO originally from a launch on Thu, 29 Jun 1961 UTC launched from the Air Force Eastern Test Range (AFETR). Debris objects in space refer to the collection of defunct objects orbiting the Earth. Examples of debris include non-operational satellites, rocket bodies, and fragments generated from explosions, collisions, or faulty payload assembly.

Loading next visibility...
Identifier
409, 1961-015EJ
Orbit
LEO
Country
Flag of USUS
Related business
Manufacturer
Unknown
Mission
Spacecraft
Bus & Motor
Unknown
Mass
Unknown
Launch date (UTC)
1961-06-29 (65 years ago)
Launch vehicle
Unknown
Launch site
Air Force Eastern Test Range (AFETR)
Object type
Payload
Rocket body
Debris
Shape & HBR
Unknown shape, 0.1 m
Radar Cross Section
Small (<0.1 m²)

Expand to show TLE details & history
Last TLE update: 11 hours ago

TLE from 11 hours ago
0 THOR ABLESTAR DEB
1 00409U 61015EJ  26126.32901221  .00000864  00000-0  36655-3 0  9999
2 00409  66.7113  98.8471 0066473 212.7439 146.9531 14.28904792335321
Epoch: 2026-05-06T07:53Z
TLE epoch observation values (Epoch: 2026-05-06T07:53:46.654Z)
Latitude
-0.00008°
Longitude
116.2116°
Altitude
837.569 km
Speed
7.414 km/s
True Right ascension
06h 35m 23s
True Declination
0° 00' 00"
Sunlit
Object was in daylight at epoch
Visualization orbit readout
Latitude
Unknown
Longitude
Unknown
Altitude
Unknown
Speed
Unknown
Apparent Right ascension
Unknown
Apparent Declination
Unknown
Sunlit
N/A
Visualization observer readout
Local Sidereal Time
03:06:49
Azimuth
Unknown
Elevation
Unknown
Doppler factor
Unknown
Orbital elements
Apogee altitude
841.442 km
Perigee altitude
746.095 km
Semi-major axis
7,171.905 km
Eccentricity
0.00665
Inclination
66.7113°
RAAN
98.8471°
Arg. of periapsis
212.7439°
True anomaly
147.36561°
Mean anomaly
146.9531°
Eccentric anomaly
147.15964°
Mean motion
3.57348 °/min
Orbital period
100.74 mins
BSTAR
0.00036655
Loading maneuver chart data...
Computing Atmospheric mass density...

Documentation

Showing up to 5 results
|